[[{"header":{"parameterUnit":"m.s-1","parameterCategory":1,"la1":30.2991,"la2":30.254,"lo1":-89.0895,"lo2":-89.0444,"dy":0.0017,"dx":0.0017,"nx":28,"ny":28,"refTime":"2025-08-07T09:00:00:Z","depth":0,"parameterNumber":2,"parameterNumberName":"U-component_of_WINDS"},"data":[0,0,0,0,0,0,0,0,0,0,0,0,0,0,0,0,0,0,0,0,0,0,0,0,0,0,0,0,0,0,0,0,0,0,0,0,0,0,0,0,0,0,0,0,0,0,0,0,0,0,0,0,0,0,0,0,0,0,1.584,1.584,0,1.5893,1.5894,1.5894,1.5831,1.5829,1.5826,1.5824,1.5882,1.5885,1.5889,0,0,0,0,0,0,0,0,0,0,0,0,0,1.5685,1.5688,1.5839,1.584,1.5841,1.5893,1.5894,1.5894,1.5831,1.5829,1.5826,1.5823,1.588,1.5885,1.5889,0,0,0,0,0,0,0,0,0,0,0,0,0,1.5747,1.5689,1.5839,1.5816,1.5814,1.5893,1.5894,1.5895,1.5832,1.5829,1.5825,1.5822,1.5879,1.5884,1.589,1.5995,0,0,1.5907,1.5909,0,0,0,0,0,0,0,0,1.5744,1.5753,1.5818,1.5817,1.5816,1.5852,1.586,1.5929,1.5833,1.5825,1.5824,1.582,1.5875,1.588,1.5898,1.5998,1.6001,1.5907,1.5911,1.5913,1.5915,0,0,0,0,0,0,0,1.5739,1.575,1.5861,1.5819,1.5818,1.5803,1.5808,1.5873,1.5869,1.5826,1.5821,1.5828,1.5873,1.5893,1.5899,1.6001,1.5907,1.5912,1.5916,1.5918,1.6191,1.6194,0,0,0,0,0,0,1.5737,1.5747,1.5859,1.5862,1.577,1.5809,1.5814,1.5844,1.5868,1.5869,1.5831,1.5825,1.5885,1.5893,1.5901,1.6026,1.5913,1.5918,1.5922,1.6187,1.6192,1.6196,0,0,0,0,0,0,1.5734,1.5748,1.5857,1.5803,1.5816,1.5815,1.5849,1.5847,1.5866,1.5873,1.5872,1.5852,1.5883,1.5893,1.5972,1.6027,1.5921,1.5926,1.6182,1.6188,1.6194,1.6278,0,0,0,0,0,0,1.573,1.5747,1.5787,1.5805,1.5819,1.5927,1.5852,1.585,1.5876,1.5868,1.5892,1.5892,1.5881,1.5964,1.5978,1.6033,1.593,1.6177,1.6185,1.6192,1.627,1.6286,1.6299,0,0,0,0,0,1.5725,1.5809,1.5789,1.5803,1.5868,1.593,1.5938,1.5923,1.5881,1.5921,1.5925,1.5892,1.6019,1.5973,1.5988,1.6046,1.6174,1.6183,1.6191,1.6264,1.6283,1.6299,0,0,0,0,0,0,1.5799,1.5811,1.5789,1.5881,1.5905,1.5919,1.5969,1.5943,1.598,1.5972,1.5951,1.5957,1.6042,1.6051,1.6,1.6149,1.609,1.6102,1.614,1.6158,1.6172,1.6168,1.5935,0,0,0,0,0,1.5825,1.5873,1.5882,1.5963,1.5975,1.5971,1.5997,1.5982,1.6007,1.6017,1.6026,1.6052,1.6097,1.6128,1.6171,1.6271,1.6276,1.6318,1.6333,1.6345,1.6356,1.641,1.6429,1.6225,1.6224,1.6224,0,0,1.5882,1.5894,1.5926,1.5978,1.5994,1.6045,1.598,1.6036,1.6074,1.6026,1.6101,1.6109,1.6136,1.6226,1.6267,1.6237,1.6413,1.6356,1.6365,1.637,1.6421,1.644,1.6458,1.623,1.6229,1.6228,0,0,1.601,1.6024,1.6093,1.6111,1.6137,1.6133,1.6149,1.6168,1.6171,1.6246,1.621,1.6256,1.6335,1.6356,1.6377,1.6513,1.6484,1.6527,1.6604,1.6657,1.6673,1.6687,1.6736,1.6754,1.6538,1.6538,1.6539,0,1.6077,1.6152,1.6132,1.6191,1.6215,1.6172,1.6242,1.6261,1.63,1.6318,1.6284,1.6382,1.6398,1.6492,1.6526,1.6544,1.6563,1.6525,1.6672,1.6686,1.6699,1.6746,1.6764,1.6543,1.6543,1.6542,1.6542,0,1.6233,1.6285,1.6338,1.6375,1.6405,1.647,1.6461,1.6493,1.6476,1.6477,1.6554,1.657,1.6615,1.6637,1.6621,1.673,1.6711,1.6675,1.6615,1.6724,1.6767,1.6785,1.6551,1.6549,1.6547,1.6546,0,0,1.641,1.6435,1.6455,1.6471,1.6497,1.6537,1.66,1.6643,1.6672,1.67,1.6753,1.6821,1.6788,1.6812,1.6798,1.6845,1.6952,1.6803,1.6803,1.683,1.7073,1.71,1.7121,1.6933,1.6936,1.6939,1.7071,0,1.6539,1.6646,1.663,1.6734,1.6783,1.6743,1.6798,1.682,1.6821,1.6863,1.6866,1.6914,1.6867,1.6881,1.6925,1.693,1.7001,1.692,1.6982,1.6985,1.6977,1.7144,1.7172,1.7296,1.7088,1.7091,1.7093,0,1.6704,1.6737,1.6846,1.6863,1.6883,1.6932,1.6971,1.7011,1.7036,1.7034,1.706,1.7038,1.7102,1.704,1.7128,1.7074,1.7098,1.7104,1.7109,1.7114,1.7046,1.7154,1.7335,1.7354,1.7119,1.7117,1.7115,0,1.6822,1.6894,1.6968,1.6984,1.7006,1.7042,1.7053,1.7074,1.7101,1.7135,1.7152,1.7194,1.7216,1.7249,1.7239,1.7195,1.7329,1.7267,1.733,1.7331,1.736,1.7359,1.7548,1.7376,1.7376,1.7375,1.7375,0,1.6968,1.7036,1.7022,1.7068,1.7143,1.7125,1.72,1.7206,1.7225,1.7272,1.724,1.7285,1.7269,1.7314,1.7306,1.738,1.7391,1.7392,1.7389,1.7395,1.7395,1.7411,1.7402,1.738,1.7379,1.7378,1.7377,0,1.7113,1.7106,1.7185,1.7199,1.7204,1.726,1.7272,1.7316,1.7315,1.7375,1.7388,1.7387,1.7437,1.743,1.7487,1.7482,1.7574,1.7561,1.7566,1.7563,1.7626,1.7621,1.7833,1.786,1.767,1.7672,1.7674,0,1.7207,1.7258,1.7278,1.7307,1.732,1.7367,1.7394,1.7378,1.7408,1.7439,1.7479,1.7526,1.7563,1.7646,1.7651,1.7694,1.7682,1.7754,1.7688,1.7692,1.7683,1.768,1.7686,1.7767,1.7769,1.777,1.7772,0,1.7374,1.7368,1.7408,1.7447,1.748,1.751,1.7537,1.7563,1.7549,1.7584,1.7635,1.7664,1.7721,1.7769,1.7809,1.7821,1.7795,1.7792,1.7809,1.7816,1.7816,1.7817,1.7601,1.7788,1.7786,1.7785,1.7784,1.7783,1.7496,1.754,1.7561,1.7606,1.7625,1.7651,1.7692,1.7696,1.7738,1.7782,1.7771,1.7828,1.7851,1.7903,1.792,1.7965,1.7939,1.7963,1.797,1.7976,1.7983,1.7809,1.7972,1.7972,1.7971,1.7971,1.7971,0,1.7662,1.7673,1.7715,1.7753,1.7789,1.776,1.7789,1.7821,1.7872,1.7895,1.7932,1.7991,1.8037,1.8045,1.8089,1.8124,1.8113,1.8136,1.8133,1.8137,1.8004,1.7985,1.8144,1.8144,1.8144,1.8144,1.8144,1.8144,1.7752,1.7825,1.7821,1.7903,1.7914,1.7969,1.7988,1.8012,1.803,1.8097,1.8135,1.8139,1.8157,1.8202,1.8243,1.8245,1.8263,1.8291,1.8287,1.8163,1.8146,1.813,1.8112,1.8295,1.8295,1.8416,1.8417,1.8418]},{"header":{"parameterUnit":"m.s-1","parameterCategory":1,"la1":30.2991,"la2":30.254,"lo1":-89.0895,"lo2":-89.0444,"dy":0.0017,"dx":0.0017,"nx":28,"ny":28,"refTime":"2025-08-07T09:00:00:Z","depth":0,"parameterNumber":3,"parameterNumberName":"V-component_of_WINDS"},"data":[0,0,0,0,0,0,0,0,0,0,0,0,0,0,0,0,0,0,0,0,0,0,0,0,0,0,0,0,0,0,0,0,0,0,0,0,0,0,0,0,0,0,0,0,0,0,0,0,0,0,0,0,0,0,0,0,0,0,-1.2955,-1.2956,0,-1.2981,-1.2981,-1.2982,-1.3,-1.3,-1.3,-1.3,-1.3026,-1.3026,-1.3027,0,0,0,0,0,0,0,0,0,0,0,0,0,-1.2922,-1.2922,-1.2955,-1.2956,-1.2956,-1.2981,-1.2981,-1.2982,-1.3,-1.3,-1.3,-1.3,-1.3025,-1.3026,-1.3027,0,0,0,0,0,0,0,0,0,0,0,0,0,-1.2941,-1.2922,-1.2955,-1.2968,-1.2969,-1.2981,-1.2981,-1.2982,-1.2999,-1.3,-1.3,-1.3,-1.3025,-1.3026,-1.3027,-1.3028,0,0,-1.3029,-1.303,0,0,0,0,0,0,0,0,-1.294,-1.2942,-1.2966,-1.2967,-1.2969,-1.2987,-1.2979,-1.2997,-1.2999,-1.2988,-1.3,-1.3,-1.3013,-1.3015,-1.3019,-1.3029,-1.303,-1.3029,-1.303,-1.303,-1.303,0,0,0,0,0,0,0,-1.2938,-1.2941,-1.2966,-1.2966,-1.2968,-1.2972,-1.2975,-1.2982,-1.2999,-1.2989,-1.299,-1.2993,-1.3013,-1.3018,-1.302,-1.303,-1.3029,-1.303,-1.3031,-1.3031,-1.3043,-1.3042,0,0,0,0,0,0,-1.2935,-1.294,-1.2965,-1.2966,-1.2954,-1.2973,-1.2976,-1.2981,-1.2999,-1.3002,-1.2993,-1.2994,-1.3016,-1.3019,-1.3021,-1.3023,-1.303,-1.3031,-1.3031,-1.3043,-1.3043,-1.3042,0,0,0,0,0,0,-1.2934,-1.2937,-1.2964,-1.2953,-1.2957,-1.2973,-1.2979,-1.2982,-1.2986,-1.3002,-1.3005,-1.2995,-1.3017,-1.3019,-1.3026,-1.3024,-1.3031,-1.3032,-1.3043,-1.3043,-1.3043,-1.3027,0,0,0,0,0,0,-1.2933,-1.2937,-1.2937,-1.2953,-1.2958,-1.2969,-1.2979,-1.2982,-1.2988,-1.2989,-1.3004,-1.3007,-1.3017,-1.3025,-1.3027,-1.3025,-1.3033,-1.3043,-1.3043,-1.3043,-1.3028,-1.3027,-1.3025,0,0,0,0,0,-1.2932,-1.2932,-1.2937,-1.294,-1.2959,-1.2969,-1.2971,-1.2983,-1.2987,-1.2988,-1.2998,-1.3006,-1.3024,-1.3025,-1.3028,-1.3026,-1.3043,-1.3043,-1.3043,-1.3029,-1.3027,-1.3025,0,0,0,0,0,0,-1.2915,-1.2934,-1.294,-1.2945,-1.2955,-1.2972,-1.2973,-1.2981,-1.2989,-1.299,-1.3005,-1.3008,-1.3013,-1.302,-1.3021,-1.3028,-1.3035,-1.3035,-1.3023,-1.3022,-1.302,-1.3018,-1.3033,0,0,0,0,0,-1.2912,-1.2918,-1.2935,-1.2938,-1.2942,-1.2957,-1.2961,-1.297,-1.298,-1.2985,-1.2995,-1.3005,-1.3013,-1.3018,-1.3026,-1.3029,-1.3033,-1.303,-1.3028,-1.3027,-1.3027,-1.303,-1.3029,-1.3041,-1.3041,-1.3041,0,0,-1.2905,-1.2916,-1.292,-1.2934,-1.2943,-1.2949,-1.296,-1.2966,-1.2971,-1.2985,-1.2992,-1.3,-1.3013,-1.3018,-1.302,-1.3024,-1.3025,-1.3027,-1.3026,-1.3026,-1.3029,-1.3028,-1.3027,-1.3041,-1.3041,-1.3041,0,0,-1.2897,-1.2906,-1.2909,-1.2918,-1.2931,-1.294,-1.2941,-1.2957,-1.2963,-1.297,-1.2981,-1.2987,-1.3,-1.3008,-1.3014,-1.3009,-1.3017,-1.3011,-1.3004,-1.3006,-1.3005,-1.3004,-1.3003,-1.3002,-1.3011,-1.3011,-1.3011,0,-1.2887,-1.2897,-1.291,-1.2916,-1.2922,-1.2936,-1.2939,-1.2947,-1.2962,-1.2966,-1.2969,-1.2986,-1.2995,-1.3003,-1.3002,-1.3006,-1.3007,-1.3009,-1.3004,-1.3004,-1.3003,-1.3002,-1.3001,-1.301,-1.301,-1.301,-1.301,0,-1.2884,-1.2891,-1.2892,-1.2907,-1.2913,-1.2918,-1.2931,-1.2936,-1.2944,-1.2953,-1.2961,-1.2972,-1.2983,-1.2985,-1.2993,-1.2994,-1.2995,-1.3002,-1.3008,-1.3001,-1.3,-1.2999,-1.3009,-1.3009,-1.3009,-1.301,0,0,-1.2865,-1.2887,-1.2887,-1.2894,-1.291,-1.2915,-1.292,-1.2931,-1.2935,-1.2945,-1.295,-1.2961,-1.2967,-1.2973,-1.2982,-1.2984,-1.298,-1.299,-1.2991,-1.2988,-1.2981,-1.2976,-1.2976,-1.2985,-1.2985,-1.2985,-1.298,0,-1.2859,-1.2869,-1.2882,-1.2888,-1.2894,-1.2908,-1.2912,-1.2922,-1.2931,-1.2938,-1.2948,-1.2955,-1.2962,-1.2966,-1.2969,-1.2979,-1.2978,-1.298,-1.299,-1.299,-1.2986,-1.2975,-1.297,-1.2965,-1.298,-1.298,-1.298,0,-1.2853,-1.2863,-1.2869,-1.2885,-1.2888,-1.2892,-1.2903,-1.2909,-1.2921,-1.2927,-1.2935,-1.2944,-1.295,-1.2956,-1.2965,-1.2966,-1.2971,-1.2977,-1.2977,-1.2978,-1.2984,-1.2976,-1.2964,-1.2963,-1.2979,-1.2979,-1.2979,0,-1.2839,-1.2853,-1.2859,-1.2864,-1.2882,-1.2885,-1.2892,-1.2904,-1.291,-1.292,-1.2923,-1.2933,-1.2939,-1.2947,-1.2959,-1.2962,-1.2966,-1.2973,-1.2972,-1.2971,-1.2972,-1.2972,-1.296,-1.2975,-1.2975,-1.2975,-1.2975,0,-1.283,-1.2834,-1.2853,-1.2857,-1.2861,-1.2875,-1.2879,-1.2888,-1.2898,-1.2904,-1.2916,-1.2921,-1.2937,-1.2944,-1.2953,-1.2959,-1.2962,-1.2967,-1.2969,-1.2966,-1.2965,-1.2969,-1.297,-1.2975,-1.2975,-1.2975,-1.2975,0,-1.2815,-1.2828,-1.2835,-1.2852,-1.2856,-1.2858,-1.2872,-1.2877,-1.2886,-1.2893,-1.2896,-1.2911,-1.2919,-1.2932,-1.2945,-1.2951,-1.2956,-1.296,-1.2952,-1.2953,-1.2951,-1.2951,-1.2942,-1.2941,-1.2956,-1.2956,-1.2956,0,-1.2809,-1.2812,-1.2829,-1.2833,-1.2841,-1.2848,-1.2854,-1.2868,-1.2874,-1.2887,-1.289,-1.29,-1.2908,-1.2922,-1.2934,-1.2943,-1.2948,-1.2944,-1.2949,-1.2946,-1.2948,-1.2947,-1.2948,-1.2942,-1.2942,-1.2942,-1.2942,0,-1.2796,-1.2803,-1.2811,-1.2821,-1.2828,-1.2837,-1.2847,-1.285,-1.2866,-1.2872,-1.2881,-1.2888,-1.2901,-1.291,-1.2922,-1.293,-1.2938,-1.294,-1.294,-1.2937,-1.2932,-1.2935,-1.2948,-1.294,-1.294,-1.294,-1.2941,-1.2941,-1.2786,-1.2789,-1.2801,-1.281,-1.2819,-1.2828,-1.2832,-1.2843,-1.2851,-1.2863,-1.287,-1.2879,-1.2891,-1.2907,-1.2915,-1.2922,-1.2926,-1.2926,-1.2926,-1.2926,-1.2925,-1.2931,-1.2924,-1.2924,-1.2924,-1.2924,-1.2924,0,-1.2774,-1.2783,-1.2791,-1.2804,-1.2811,-1.2819,-1.283,-1.2835,-1.2843,-1.2853,-1.2861,-1.2872,-1.2881,-1.2894,-1.2905,-1.2908,-1.2912,-1.291,-1.291,-1.2912,-1.2921,-1.2919,-1.2907,-1.2907,-1.2907,-1.2907,-1.2907,-1.2907,-1.2769,-1.2775,-1.2783,-1.2794,-1.2803,-1.2811,-1.2817,-1.2825,-1.2834,-1.2845,-1.2853,-1.2861,-1.2873,-1.2884,-1.2893,-1.2897,-1.29,-1.2897,-1.2902,-1.291,-1.2911,-1.2913,-1.2912,-1.2898,-1.2898,-1.2893,-1.2893,-1.2892]}]]